FW7456 Weather Reports


time (UTC)temp
F
wind
direction
speed
knots
gust
knots
rain 1hr
in
rain 24hr
in
rain mn
in
humidity
%
barometer
mb
20220812001632 75 337 1.7 5.2 0.00 0.01 0.01 83 1017.9
20220812000103 76 173 0.9 3.5 0.00 0.01 0.01 83 1017.8
20220811234605 76 154 1.7 6.1 0.00 0.01 0.01 84 1017.6
20220811233111 76 185 1.7 6.1 0.00 0.01 0.01 83 1017.7
20220811231604 77 0 0.0 5.2 0.00 0.01 0.01 82 1017.4
20220811230115 77 244 7.0 13.0 0.00 0.01 0.01 81 1017.2
20220811224607 77 238 8.7 17.4 0.00 0.01 0.01 83 1017.2
20220811223111 79 220 7.0 11.3 0.00 0.01 0.01 80 1017.3
20220811221603 79 223 5.2 9.6 0.00 0.01 0.01 78 1017.7
20220811220112 79 217 4.3 8.7 0.00 0.01 0.01 79 1017.7
20220811214601 78 227 3.5 10.4 0.00 0.01 0.01 80 1017.9
20220811213058 79 188 5.2 9.6 0.00 0.01 0.01 79 1017.9
20220811211556 80 219 3.5 8.7 0.00 0.01 0.01 78 1017.7
20220811210056 80 159 3.5 9.6 0.00 0.01 0.01 75 1017.7
20220811204714 81 215 6.1 11.3 0.00 0.01 0.01 70 1017.5
20220811203209 81 215 7.0 10.4 0.00 0.01 0.01 73 1017.7
20220811201606 82 189 3.5 6.1 0.00 0.01 0.01 74 1018.0
20220811200111 82 243 1.7 10.4 0.00 0.01 0.01 72 1018.2
20220811194610 77 225 6.1 10.4 0.00 0.01 0.01 81 1018.7
20220811193110 77 247 6.1 11.3 0.00 0.01 0.01 80 1018.7
20220811191618 79 170 2.6 5.2 0.00 0.01 0.01 79 1018.7
20220811190114 79 155 4.3 8.7 0.00 0.01 0.01 78 1018.6
20220811184608 83 162 3.5 9.6 0.00 0.01 0.01 68 1018.8
20220811183120 80 177 3.5 7.8 0.00 0.01 0.01 73 1018.8
20220811181605 82 174 4.3 12.2 0.00 0.01 0.01 70 1019.1
20220811180109 82 207 4.3 7.8 0.00 0.01 0.01 69 1019.3
20220811174641 82 187 3.5 6.1 0.00 0.01 0.01 70 1019.6
20220811173107 82 126 4.3 7.8 0.00 0.01 0.01 74 1019.6
20220811171558 84 237 1.7 7.0 0.00 0.01 0.01 70 1019.7
20220811170104 82 0 2.6 7.0 0.00 0.01 0.01 72 1019.9
20220811164600 82 246 2.6 6.1 0.00 0.01 0.01 70 1020.1
20220811163100 82 234 0.9 4.3 0.00 0.01 0.01 75 1020.3
20220811161605 81 224 1.7 5.2 0.00 0.01 0.01 77 1020.6
20220811160110 79 177 2.6 5.2 0.00 0.01 0.01 80 1020.6
20220811154559 76 0 1.7 4.3 0.00 0.01 0.01 85 1020.7
20220811153109 75 0 0.0 2.6 0.00 0.01 0.01 88 1020.8
20220811151607 75 331 0.0 1.7 0.00 0.01 0.01 89 1020.7
20220811150103 75 0 0.0 1.7 0.00 0.01 0.01 88 1020.5
20220811144608 74 331 1.7 3.5 0.01 0.01 0.01 89 1020.4
20220811143115 75 0 0.0 0.0 0.01 0.01 0.01 89 1020.3
20220811141602 74 0 0.0 0.0 0.01 0.01 0.01 89 1020.3
20220811140110 74 0 0.0 0.9 0.01 0.01 0.01 87 1020.0
20220811134600 74 331 0.0 0.9 0.00 0.00 0.00 86 1020.1
20220811133218 73 0 0.0 0.9 0.00 0.00 0.00 90 1020.2
20220811131612 71 331 0.9 2.6 0.00 0.00 0.00 94 1020.4
20220811130100 70 331 0.9 1.7 0.00 0.00 0.00 96 1020.2
20220811124603 69 330 2.6 4.3 0.00 0.00 0.00 96 1020.3
20220811123104 69 223 0.9 2.6 0.00 0.00 0.00 97 1020.1
20220811121613 68 223 0.9 3.5 0.00 0.00 0.00 97 1020.2
20220811120108 69 0 0.0 0.0 0.00 0.00 0.00 97 1020.0
20220811114603 68 0 0.0 0.0 0.00 0.00 0.00 97 1020.1
20220811113136 69 0 0.0 0.0 0.00 0.00 0.00 96 1020.2
20220811111558 69 0 0.0 2.6 0.00 0.00 0.00 96 1020.0
20220811110058 68 0 0.0 0.0 0.00 0.00 0.00 96 1020.0
20220811104608 68 223 0.0 2.6 0.00 0.00 0.00 97 1019.9
20220811103058 68 223 0.9 2.6 0.00 0.00 0.00 97 1019.8
20220811101559 68 0 0.0 1.7 0.00 0.00 0.00 96 1020.0
20220811100107 68 223 0.9 2.6 0.00 0.00 0.00 97 1020.0
20220811094621 68 223 0.0 1.7 0.00 0.00 0.00 97 1019.9
20220811093106 68 0 0.0 1.7 0.00 0.00 0.00 97 1019.9
20220811091616 68 223 1.7 2.6 0.00 0.00 0.00 97 1019.9
20220811090106 68 223 0.0 2.6 0.00 0.00 0.00 97 1019.9
20220811084559 68 0 0.0 0.0 0.00 0.00 0.00 97 1019.8
20220811083111 68 0 0.0 0.0 0.00 0.00 0.00 96 1019.7
20220811081613 68 0 0.0 0.0 0.00 0.00 0.00 96 1019.8
20220811080113 68 0 0.0 1.7 0.00 0.00 0.00 96 1020.0
20220811074607 68 0 0.0 3.5 0.00 0.00 0.00 96 1020.0
20220811073104 68 0 0.0 2.6 0.00 0.00 0.00 96 1020.1
20220811071559 68 0 0.0 3.5 0.00 0.00 0.00 96 1020.2
20220811070105 68 315 1.7 5.2 0.00 0.00 0.00 96 1020.2
20220811064607 68 332 0.9 3.5 0.00 0.00 0.00 97 1020.6
20220811063131 68 0 0.0 0.0 0.00 0.00 0.00 96 1020.8
20220811061555 68 0 0.0 0.0 0.00 0.00 0.00 96 1021.2
20220811060118 68 0 0.0 2.6 0.00 0.00 0.00 96 1021.3
20220811054556 69 0 0.0 1.7 0.00 0.00 0.00 95 1021.5
20220811053107 69 0 0.0 2.6 0.00 0.00 0.00 94 1021.7
20220811051635 69 0 0.0 3.5 0.00 0.00 0.00 95 1021.8
20220811050105 69 180 2.6 5.2 0.00 0.00 0.00 94 1021.9
20220811044608 69 0 0.0 3.5 0.00 0.00 0.00 95 1022.0
20220811043111 69 316 0.9 2.6 0.00 0.00 0.00 95 1022.0
20220811041559 69 0 0.0 2.6 0.00 0.00 0.00 96 1021.9
20220811040118 69 0 0.0 1.7 0.00 0.00 0.00 95 1021.9
20220811033210 69 309 1.7 3.5 0.00 0.00 0.00 95 1022.2
20220811030108 69 302 2.6 4.3 0.00 0.00 0.00 95 1022.3
20220811024604 69 261 0.0 1.7 0.00 0.00 0.00 96 1022.3
20220811023111 69 261 0.0 2.6 0.00 0.00 0.00 96 1022.3
20220811021605 69 296 0.9 3.5 0.00 0.00 0.00 96 1022.3
20220811020059 69 0 0.0 2.6 0.00 0.00 0.00 96 1022.1
20220811014603 70 0 0.0 0.0 0.00 0.00 0.00 96 1021.8
20220811013109 70 296 0.9 2.6 0.00 0.00 0.00 96 1021.7
20220811011558 70 296 1.7 3.5 0.00 0.00 0.00 96 1021.5
20220811010105 71 296 1.7 4.3 0.00 0.00 0.00 96 1021.3
20220811004605 71 327 1.7 3.5 0.00 0.00 0.00 95 1021.1
20220811003117 72 327 0.0 1.7 0.00 0.00 0.00 95 1021.0